Find Starlink 32405

NORAD ID: 61636 Int'l Des: 2024-191 Owner: SPXS Country: US Constellation: starlink operational
LEOCIRCULAR

实时位置

正在加载3D地球...

关于 Starlink 32405

正在加载描述...

即将过境

Passes for default location (London). Set your location on the main map for personalized predictions.

高度历史

Loading altitude history...

两行轨道根数

1 61636U 24191R 26124.60562567 .00005536 00000-0 21053-3 0 9994
2 61636 43.0007 202.5666 0001352 271.3609 88.7087 15.27584623 86043
Epoch: May 4, 2026 • Age: 15 hours

当前状态

高度 486.9 km
速度 7.63 km/s
星下点 42.19°N, 4.43°E
发射日期 Oct 23, 2024
运行时间 1.5 years
类型 internet

技术详情

分类 Payload
质量 730.00 kg
干质量 700.00 kg
总质量 730.00 kg
长度 0.30 m
直径 4.10 m
跨度 29.00 m
形状 Box + pan
制造商 SPXS
平台类型 Starlink V2M
阶段状态 In Orbit
所有者/国家 SPXS/US

Most Searched